GSAT0222 (PRN E33) (43565 NORAD) Tracking and Keplerian Element Data

This shows tracking and keplerian element data for the satellite.

Feedback or suggestion? Click here.




ElementValue
Catalog43565
NameGSAT0222 (PRN E33)
Epoch Orbit190
Epoch Day315.15517936
Epoch Year2018
RAAN57.12
Inclination56.4055
Eccentricity0.0003896
Argument of Perigee258.7454
Mean Anonmoly101.2106
Mean Motion1.70476536
Decay Rate-6.9E-07
L11 43565U 18060B 18315.15517936 -.00000069 00000-0 00000-0 0 9999
L22 43565 56.4055 57.1200 0003896 258.7454 101.2106 1.70476536 1906

Live tracking and technical data element details for GSAT0222 (PRN E33) (NORAD 43565). GSAT0222 (PRN E33) can be tracked NOW for your location showing map with azimuth and elevation plus other details from your city location.

Track the satellite on the map from your city or location and see movement details for azimuth, elevation, latitude, longitude, range, height, and movement on the map or in text.







IsCatalogInMostPopularTable: catalog: 43565, numindb: 38
Update: records affected: 1



GetName: 43565 GSAT0222 (PRN E33)

Hit Count: updated at: Tue, 13 Nov 2018 07:06:59 GMT